TimeEST,TemperatureF,Dew PointF,Humidity,Sea Level PressureIn,VisibilityMPH,Wind Direction,Wind SpeedMPH,Gust SpeedMPH,PrecipitationIn,Events,Conditions,WindDirDegrees,DateUTC
12:53 AM,63.0,54.0,72,29.67,10.0,WSW,11.5,23.0,N/A,,Partly Cloudy,240,2011-11-14 05:53:00
1:53 AM,61.0,55.0,81,29.68,10.0,SW,15.0,23.0,N/A,,Overcast,230,2011-11-14 06:53:00
2:53 AM,59.0,55.9,90,29.67,7.0,NW,6.9,-,0.09,Rain,Light Rain,310,2011-11-14 07:53:00
3:12 AM,59.0,55.4,88,29.69,1.5,West,21.9,29.9,0.17,Rain,Heavy Rain,260,2011-11-14 08:12:00
3:24 AM,57.2,53.6,88,29.68,2.0,WSW,20.7,35.7,0.33,Rain,Heavy Rain,240,2011-11-14 08:24:00
3:53 AM,57.9,54.0,87,29.66,4.0,SW,10.4,18.4,0.50,Rain,Rain,220,2011-11-14 08:53:00
5:53 AM,60.1,55.9,86,29.67,10.0,SSW,6.9,-,0.01,,Overcast,210,2011-11-14 10:53:00
6:00 AM,60.8,55.4,82,29.69,10.0,Variable,5.8,-,N/A,,Overcast,0,2011-11-14 11:00:00
6:12 AM,60.8,55.4,82,29.67,10.0,South,9.2,23.0,0.01,Rain,Light Rain,190,2011-11-14 11:12:00
6:53 AM,59.0,55.9,90,29.65,9.0,SW,8.1,16.1,0.01,Rain,Rain,220,2011-11-14 11:53:00
7:18 AM,57.2,55.4,94,29.67,1.5,NW,3.5,-,0.22,Rain,Heavy Rain,310,2011-11-14 12:18:00
7:38 AM,57.2,55.4,94,29.72,1.5,West,13.8,21.9,0.46,Rain,Heavy Rain,280,2011-11-14 12:38:00
7:46 AM,57.2,55.4,94,29.73,1.5,West,13.8,21.9,0.51,Rain,Rain,260,2011-11-14 12:46:00
7:48 AM,57.2,55.4,94,29.72,2.5,West,12.7,21.9,0.51,Rain,Light Rain,260,2011-11-14 12:48:00
7:50 AM,57.2,53.6,88,29.71,5.0,WSW,12.7,21.9,0.51,Rain,Light Rain,250,2011-11-14 12:50:00
7:53 AM,57.0,54.0,89,29.70,7.0,West,13.8,19.6,0.51,Rain,Light Rain,260,2011-11-14 12:53:00
8:53 AM,55.9,54.0,93,29.68,10.0,South,6.9,-,0.08,,Overcast,190,2011-11-14 13:53:00
9:53 AM,57.9,55.0,90,29.66,10.0,South,6.9,-,N/A,,Overcast,190,2011-11-14 14:53:00
10:53 AM,63.0,57.9,84,29.63,10.0,South,13.8,-,N/A,,Overcast,190,2011-11-14 15:53:00
11:53 AM,64.9,57.9,78,29.60,10.0,SSW,16.1,29.9,N/A,,Mostly Cloudy,200,2011-11-14 16:53:00
12:53 PM,66.9,57.9,73,29.57,10.0,SSW,13.8,25.3,N/A,,Overcast,210,2011-11-14 17:53:00
1:53 PM,68.0,57.9,70,29.55,10.0,SW,20.7,29.9,N/A,,Overcast,220,2011-11-14 18:53:00
2:53 PM,69.1,57.9,68,29.52,10.0,SSW,17.3,28.8,N/A,,Overcast,210,2011-11-14 19:53:00
3:53 PM,69.1,57.9,68,29.54,10.0,SW,16.1,32.2,N/A,,Overcast,220,2011-11-14 20:53:00
4:53 PM,69.1,57.9,68,29.55,10.0,SW,13.8,25.3,N/A,,Overcast,230,2011-11-14 21:53:00
5:50 PM,60.8,51.8,72,29.62,7.0,WNW,26.5,35.7,0.01,Rain-Thunderstorm,Rain,300,2011-11-14 22:50:00
5:53 PM,60.1,52.0,75,29.59,8.0,NW,18.4,35.7,0.01,Rain-Thunderstorm,Light Thunderstorms and Rain,310,2011-11-14 22:53:00
6:00 PM,57.2,51.8,82,29.63,3.0,WNW,18.4,28.8,0.09,Rain-Thunderstorm,Heavy Thunderstorms and Rain,300,2011-11-14 23:00:00
6:04 PM,57.2,53.6,88,29.63,1.8,WNW,11.5,28.8,0.17,Rain-Thunderstorm,Heavy Thunderstorms and Rain,290,2011-11-14 23:04:00
6:12 PM,57.2,53.6,88,29.62,1.0,WNW,16.1,19.6,0.37,Rain-Thunderstorm,Heavy Thunderstorms and Rain,300,2011-11-14 23:12:00
6:24 PM,57.2,53.6,88,29.63,2.0,West,11.5,20.7,0.56,Rain-Thunderstorm,Heavy Thunderstorms and Rain,270,2011-11-14 23:24:00
6:37 PM,57.2,53.6,88,29.65,4.0,West,9.2,-,0.61,Rain-Thunderstorm,Thunderstorms and Rain,280,2011-11-14 23:37:00
6:53 PM,57.0,54.0,89,29.65,5.0,WSW,5.8,-,0.65,Rain-Thunderstorm,Rain,250,2011-11-14 23:53:00
7:06 PM,55.4,53.6,94,29.67,4.0,West,5.8,-,0.04,Rain-Thunderstorm,Rain,280,2011-11-15 00:06:00
7:27 PM,57.2,53.6,88,29.68,10.0,WSW,4.6,-,0.06,Rain,Light Rain,250,2011-11-15 00:27:00
8:53 PM,55.9,52.0,87,29.69,10.0,SW,4.6,-,N/A,,Clear,220,2011-11-15 01:53:00
9:53 PM,55.0,52.0,89,29.70,9.0,West,5.8,-,N/A,,Clear,260,2011-11-15 02:53:00
10:14 PM,53.6,51.8,94,29.73,7.0,West,3.5,-,N/A,,Scattered Clouds,270,2011-11-15 03:14:00
10:23 PM,53.6,51.8,94,29.73,6.0,Calm,Calm,-,N/A,,Mostly Cloudy,0,2011-11-15 03:23:00
10:53 PM,54.0,52.0,93,29.73,6.0,WSW,3.5,-,N/A,,Scattered Clouds,250,2011-11-15 03:53:00
11:53 PM,53.1,51.1,93,29.75,5.0,SW,4.6,-,N/A,,Partly Cloudy,230,2011-11-15 04:53:00